Weather History for KJCT - February, 2013

Change the Weather History Date:

Tuesday, February 19, 2013

  Actual Average Record
Temperature  
Mean Temperature 54 °F -  
Max Temperature 66 °F 62 °F - (-1)
Min Temperature 41 °F 38 °F - (-1)
Degree Days  
Heating Degree Days 12    
Growing Degree Days 4 (Base 50)    
Moisture  
Dew Point 26 °F    
Average Humidity 35    
Maximum Humidity 58    
Minimum Humidity 15    
Precipitation  
Precipitation 0.00 in - - ()
Sea Level Pressure  
Sea Level Pressure 30.07 in    
Wind  
Wind Speed 8 mph (ESE)    
Max Wind Speed 17 mph    
Max Gust Speed 23 mph    
Visibility 9 miles    
Events Rain    
Averages and records for this station are not official NWS values.
T = Trace of Precipitation, MM = Missing Value Source: NWS Daily Summary

Daily Weather History Graph

Daily Weather History Graph

Search for Another Location

Airport or City:

Trip Planner

Search our weather history database for the weather conditions in past years. The results will help you decide how hot, cold, wet, or windy it might be!

Date:

Astronomy

Feb. 19, 2013 Rise Set
Actual Time 7:15 AM CST 6:30 PM CST
Civil Twilight 6:51 AM CST 6:55 PM CST
Nautical Twilight 6:22 AM CST 7:23 PM CST
Astronomical Twilight 5:55 AM CST 7:51 PM CST
Moon 1:15 PM CST (2/19) 2:36 AM CST (2/19)
Length of Visible Light 12h 04m
Length of Day
11h 15m
Waxing Gibbous, 67% of the Moon is Illuminated
Feb 19
Waxing Gibbous
Feb 25
Full
Mar 4
Last Quarter
Mar 11
New
Mar 19
First Quarter

Hourly Weather History & Observations

Time (CST) Temp. Windchill Dew Point Humidity Pressure Visibility Wind Dir Wind Speed Gust Speed Precip Events Conditions
12:51 AM 52.0 °F - 28.0 °F 40% 30.02 in 9.0 mi ENE 9.2 mph - N/A   Clear
1:51 AM 52.0 °F - 28.0 °F 40% 30.04 in 9.0 mi East 6.9 mph - N/A   Clear
2:51 AM 46.9 °F - 27.0 °F 46% 30.06 in 9.0 mi Calm Calm - N/A   Clear
3:51 AM 46.0 °F 44.8 °F 28.0 °F 50% 30.06 in 9.0 mi East 3.5 mph - N/A   Clear
4:51 AM 44.1 °F - 28.0 °F 53% 30.07 in 9.0 mi Calm Calm - N/A   Clear
5:51 AM 43.0 °F 41.3 °F 28.0 °F 56% 30.11 in 8.0 mi ESE 3.5 mph - N/A   Clear
6:51 AM 43.0 °F 40.3 °F 28.0 °F 56% 30.14 in 9.0 mi East 4.6 mph - N/A   Clear
7:51 AM 42.1 °F - 28.0 °F 58% 30.17 in 7.0 mi Calm Calm - N/A   Clear
8:51 AM 48.9 °F - 28.0 °F 44% 30.18 in 8.0 mi East 9.2 mph - N/A   Clear
9:51 AM 53.1 °F - 25.0 °F 34% 30.17 in 9.0 mi East 17.3 mph - N/A   Clear
10:51 AM 55.9 °F - 25.0 °F 30% 30.17 in 9.0 mi East 12.7 mph - N/A   Clear
11:51 AM 59.0 °F - 24.1 °F 26% 30.16 in 9.0 mi East 12.7 mph - N/A   Clear
12:51 PM 63.0 °F - 24.1 °F 23% 30.12 in 8.0 mi East 13.8 mph - N/A   Clear
1:51 PM 63.0 °F - 21.9 °F 21% 30.07 in 8.0 mi SE 15.0 mph - N/A   Clear
2:51 PM 64.0 °F - 21.9 °F 20% 30.03 in 8.0 mi SE 17.3 mph 23.0 mph N/A   Clear
3:51 PM 66.0 °F - 23.0 °F 20% 30.02 in 8.0 mi SE 15.0 mph 19.6 mph N/A   Mostly Cloudy
4:51 PM 63.0 °F - 23.0 °F 22% 30.01 in 9.0 mi ESE 15.0 mph 18.4 mph 0.00 in   Mostly Cloudy
6:51 PM 61.0 °F - 23.0 °F 23% 29.99 in 9.0 mi ESE 13.8 mph - N/A   Overcast
7:51 PM 61.0 °F - 23.0 °F 23% 30.01 in 9.0 mi SE 11.5 mph 20.7 mph N/A   Overcast
8:51 PM 60.1 °F - 24.1 °F 25% 30.00 in 10.0 mi ESE 10.4 mph 21.9 mph N/A   Overcast
9:51 PM 60.1 °F - 24.1 °F 25% 30.02 in 10.0 mi SE 15.0 mph - N/A   Overcast
10:51 PM 57.0 °F - 32.0 °F 39% 30.01 in 9.0 mi SE 8.1 mph - 0.00 in Rain Light Rain
11:51 PM 54.0 °F - 37.0 °F 53% 29.97 in 10.0 mi East 8.1 mph - 0.00 in   Overcast